Location: Most
(50.5133°N, 13.6207°E)
Time: 20:58:12
(UTC+02:00)

ISS - Pass Details

Date: 25 May 2025
Orbit: 415 x 416 km, 51.6° (Epoch: 16 June)

Event Time Altitude Azimuth Distance (km) Brightness Sun altitude
Rises 22:16:35 0° 280° (W) 2,360 0.9 -9.6°
Reaches altitude 10° 22:19:33 10° 251° (WSW) 1,491 -0.7 -9.9°
Maximum altitude 22:21:10 13° 223° (SW) 1,320 -1.3 -10.0°
Drops below altitude 10° 22:22:46 10° 194° (SSW) 1,486 -1.3 -10.2°
Enters shadow 22:23:19 - 186° (S) 1,606 -1.2 -10.2°
